This is the latest recevied weather packets stored in our database for station/object VE8SKI. If no packets are shown the sender has not sent any weather packets the latest 10 day(s).
| Time | Temp. | Humidity | Pressure | Rain* | Wind** | Luminosity | Snow |
|---|---|---|---|---|---|---|---|
| 1777936390 | 5° C | 64% | 1023.8 hPa | 0 mm | 1.34 m/s, 277° | - | - |
| 1777936090 | 5° C | 64% | 1023.8 hPa | 0 mm | 1.79 m/s, 295° | - | - |
| 1777935791 | 4.44° C | 65% | 1023.8 hPa | 0 mm | 1.34 m/s, 205° | - | - |
| 1777935491 | 4.44° C | 65% | 1023.8 hPa | 0 mm | 1.79 m/s, 283° | - | - |
| 1777935189 | 4.44° C | 64% | 1023.8 hPa | 0 mm | 1.34 m/s, 229° | - | - |
| 1777934889 | 3.89° C | 66% | 1023.6 hPa | 0 mm | 0.89 m/s, 304° | - | - |
| 1777934590 | 3.89° C | 67% | 1023.8 hPa | 0 mm | 1.79 m/s, 314° | - | - |
| 1777934290 | 3.33° C | 67% | 1023.8 hPa | 0 mm | 2.68 m/s, 267° | - | - |
| 1777933991 | 3.89° C | 67% | 1023.8 hPa | 0 mm | 0.89 m/s, 4° | - | - |
| 1777933691 | 3.33° C | 67% | 1023.8 hPa | 0 mm | 1.79 m/s, 300° | - | - |
| 1777933389 | 3.33° C | 67% | 1023.8 hPa | 0 mm | 1.79 m/s, 264° | - | - |
| 1777933090 | 3.89° C | 67% | 1023.8 hPa | 0 mm | 1.34 m/s, 273° | - | - |
| 1777932790 | 3.33° C | 66% | 1023.8 hPa | 0 mm | 2.24 m/s, 335° | - | - |
| 1777932491 | 3.89° C | 66% | 1023.6 hPa | 0 mm | 1.79 m/s, 314° | - | - |
| 1777932191 | 3.89° C | 65% | 1023.8 hPa | 0 mm | 1.34 m/s, 259° | - | - |
| 1777931892 | 4.44° C | 65% | 1023.8 hPa | 0 mm | 1.79 m/s, 359° | - | - |
| 1777931589 | 4.44° C | 66% | 1023.6 hPa | 0 mm | 0 m/s | - | - |
| 1777931290 | 3.89° C | 66% | 1023.6 hPa | 0 mm | 0.89 m/s, 259° | - | - |
| 1777930990 | 3.89° C | 67% | 1023.6 hPa | 0 mm | 1.34 m/s, 120° | - | - |
| 1777930691 | 3.89° C | 67% | 1023.6 hPa | 0 mm | 0.89 m/s, 300° | - | - |
| 1777930391 | 3.89° C | 65% | 1023.6 hPa | 0 mm | 0.89 m/s, 266° | - | - |
| 1777930092 | 3.89° C | 63% | 1023.6 hPa | 0 mm | 0.89 m/s, 288° | - | - |
| 1777929790 | 4.44° C | 63% | 1023.6 hPa | 0 mm | 0.45 m/s, 23° | - | - |
| 1777929490 | 3.89° C | 64% | 1023.6 hPa | 0 mm | 0.89 m/s, 25° | - | - |
| 1777929190 | 3.89° C | 65% | 1023.6 hPa | 0 mm | 0.89 m/s, 311° | - | - |
* Rain latest hour (hover to see other rain measurements)
** Current wind speed in m/s (hover to see current wind gust speed)